User: anonymous   Login
Location: Unspecified
(0.0000°N, 0.0000°E)
Time: 18:29:00
(UTC+02:00)
Language:

AO-40 - Orbit

View from above orbital plane
View from above orbital plane
View from above satellite
View from above satellite

Ground track
Ground track

The orbit data is extracted from the following two-line orbital elements,

1 26609U 00072B   15139.32608716 -.00000383  00000-0  00000+0 0  9998
2 26609 009.2456 354.0548 7955312 229.1490 028.9608 01.25585933 66791
Epoch (UTC): 19 May 2015 07:49:33
Eccentricity: 0.7955312
inclination: 9.2456°
perigee height: 1042 km
apogee height: 58779 km
right ascension of ascending node: 354.0548°
argument of perigee: 229.1490°
revolutions per day: 1.25585933
mean anomaly at epoch: 28.9608°
orbit number at epoch: 6679

The dashed part of the orbit path shows where the satellite is in the earth's shadow,  

DLR